Location: Sternwarte auf dem Internationalen Platz Vogelsang IP
(50.5721°N, 6.4398°E)
Time: 02:21:00
(UTC+01:00)

Transit 2A Rocket - Pass Details

Date: 16 December 2025
Orbit: 581 x 903 km, 66.7° (Epoch: 14 January)

Event Time Altitude Azimuth Distance (km) Brightness Sun altitude
Rises 12:47:36 0° 303° (WNW) 3,497 8.1 16.0°
Reaches altitude 10° 12:51:04 10° 323° (NW) 2,581 7.4 15.9°
Maximum altitude 12:54:55 17° 3° (N) 2,124 6.8 15.9°
Drops below altitude 10° 12:58:46 10° 43° (NE) 2,582 7.3 15.8°
Sets 13:02:15 0° 63° (ENE) 3,499 8.1 15.7°
